(267100) = 1999 XL251

Discovered at Kitt Peak on 1999-12-09 by Spacewatch.

Orbit

Orbit type: Main Belt

Note: WebGL enabled browser required.

epoch2023-09-13.0
epoch JD2460200.5
perihelion date2021-02-20.27726
perihelion JD2459265.77726
argument of perihelion (°)39.48769
ascending node (°)80.61624
inclination (°)4.66651
eccentricity0.0693419
perihelion distance (AU)2.1279063
Tisserand w.r.t. Jupiter3.6
ΔV w.r.t. Earth (km/sec)9.1
semimajor axis (AU)2.2864532
mean anomaly (°)266.46684
mean daily motion (°/day)0.28507580
aphelion distance (AU)2.445
period (years)3.46
P-vector [x]-0.49949035
P-vector [y]0.77283487
P-vector [z]0.39145326
Q-vector [x]-0.86259292
Q-vector [y]-0.48553969
Q-vector [z]-0.14207275
absolute magnitude17.77
phase slope0.15
uncertainty0
referenceMPEC 2023-X167
observations used235
oppositions11
arc length (days)8774
first opposition used1999
last opposition used2023
residual rms (arc-secs)0.72
perturbers coarse indicatorM-v
perturbers precise indicator003Ek
first observation date used1999-11-30.0
last observation date used2023-12-08.0
computer nameMPCLINUX
JD of orbit computation2456670.954841
perihelion JD uncertainty (days)1.4875E-03
argument of perihelion uncertainty (°)4.7746E-04
ascending node uncertainty (°)6.7438E-05
inclination uncertainty (°)7.4740E-06
eccentricity uncertainty 6.8935E-08
perihelion distance uncertainty (AU)1.4866E-07
Minimum Orbit Intersection Distances (in AU)
for orbit epoch: 2460200.5, reference: E2023-X25
Mercury1.79243
Venus1.40941
Earth1.14501
Mars0.48191
Jupiter2.59347
Saturn6.89548
Uranus16.272
Neptune27.5283

Observations

236 total observations over interval: 1999 11 30.33013 – 2023 12 08.260237
These data are available for download (format description).

Date (UT) J2000 RA J2000 Dec Magn Location Ref
1999 11 30.33013 03 47 17.83 +17 14 30.3 20.5 V 691 – Steward Observatory, Kitt Peak-Spacewatch MPS 27776
1999 11 30.35165 03 47 16.37 +17 14 29.4 20.8 V 691 – Steward Observatory, Kitt Peak-Spacewatch MPS 27776
1999 11 30.37339 03 47 14.86 +17 14 28.7 20.6 V 691 – Steward Observatory, Kitt Peak-Spacewatch MPS 27776
1999 12 09.26523 03 38 05.45 +17 11 02.4 21.6 V 691 – Steward Observatory, Kitt Peak-Spacewatch MPS 16718
1999 12 09.28827 03 38 04.08 +17 11 01.1 21.4 V 691 – Steward Observatory, Kitt Peak-Spacewatch MPS 16718
1999 12 09.31048 03 38 02.78 +17 11 00.8 21.3 V 691 – Steward Observatory, Kitt Peak-Spacewatch MPS 16718
1999 12 12.20038 03 35 25.84 +17 11 02.5 21.1 V 691 – Steward Observatory, Kitt Peak-Spacewatch MPS 16718
1999 12 12.22270 03 35 24.64 +17 11 02.3 20.5 V 691 – Steward Observatory, Kitt Peak-Spacewatch MPS 16718
1999 12 12.25724 03 35 22.73 +17 11 02.7 20.8 V 691 – Steward Observatory, Kitt Peak-Spacewatch MPS 16718
2004 03 10.25983 10 20 46.37 +19 07 48.0 19.8   644 – Palomar Mountain/NEAT MPS 196277
2004 03 10.28429 10 20 45.05 +19 07 53.1 19.2   644 – Palomar Mountain/NEAT MPS 196277
2004 03 10.31841 10 20 43.22 +19 08 01.0 19.8   644 – Palomar Mountain/NEAT MPS 196277
2004 03 19.21786 10 14 00.70 +19 30 47.3 19.9   644 – Palomar Mountain/NEAT MPS 196277
2004 03 19.23906 10 13 59.82 +19 30 49.3 20.1   644 – Palomar Mountain/NEAT MPS 196277
2004 03 19.26076 10 13 58.95 +19 30 51.3 20.1   644 – Palomar Mountain/NEAT MPS 196277
2006 11 11.38911 05 19 05.70 +21 09 46.5 21.1 V 691 – Steward Observatory, Kitt Peak-Spacewatch MPS 196277
2006 11 11.40650 05 19 05.00 +21 09 48.3 20.9 V 691 – Steward Observatory, Kitt Peak-Spacewatch MPS 196277
2006 11 11.42389 05 19 04.27 +21 09 49.9 21.0 V 691 – Steward Observatory, Kitt Peak-Spacewatch MPS 196277
2006 12 01.33153 05 00 42.32 +21 34 20.9 21.0 V 691 – Steward Observatory, Kitt Peak-Spacewatch MPS 196277
2006 12 01.34899 05 00 41.09 +21 34 21.7 20.4 V 691 – Steward Observatory, Kitt Peak-Spacewatch MPS 196277
2006 12 01.36991 05 00 39.61 +21 34 23.1 20.4 V 691 – Steward Observatory, Kitt Peak-Spacewatch MPS 196277
2006 12 15.36451 04 44 31.34 +21 47 48.1 20.1 V G96 – Mt. Lemmon Survey MPS 196277
2006 12 15.37233 04 44 30.80 +21 47 48.7 19.9 V G96 – Mt. Lemmon Survey MPS 196277
2006 12 15.38008 04 44 30.26 +21 47 48.7 20.0 V G96 – Mt. Lemmon Survey MPS 196277
2006 12 15.38781 04 44 29.72 +21 47 49.3 20.1 V G96 – Mt. Lemmon Survey MPS 196277
2007 01 09.26995 04 24 24.76 +22 14 13.0 21.5 V G96 – Mt. Lemmon Survey MPS 196277
2007 01 09.27549 04 24 24.66 +22 14 13.1 21.5 V G96 – Mt. Lemmon Survey MPS 196277
2007 01 09.28100 04 24 24.48 +22 14 13.3 20.8 V G96 – Mt. Lemmon Survey MPS 196277
2007 01 09.28646 04 24 24.30 +22 14 13.8 20.1 V G96 – Mt. Lemmon Survey MPS 196277
2010 12 10.45426 11 21 16.29 +09 07 10.9   691 – Steward Observatory, Kitt Peak-Spacewatch MPS 358688
2010 12 10.47294 11 21 17.62 +09 07 04.7   691 – Steward Observatory, Kitt Peak-Spacewatch MPS 358688
2010 12 10.49162 11 21 19.03 +09 06 59.3   691 – Steward Observatory, Kitt Peak-Spacewatch MPS 358688
2011 01 30.41789 11 55 38.48 +08 21 17.3 21.0 V 691 – Steward Observatory, Kitt Peak-Spacewatch MPS 368495
2011 01 30.43565 11 55 38.34 +08 21 21.4 20.8 V 691 – Steward Observatory, Kitt Peak-Spacewatch MPS 368495
2011 01 30.45339 11 55 38.27 +08 21 25.9 21.0 V 691 – Steward Observatory, Kitt Peak-Spacewatch MPS 368495
2011 03 04.35080 11 37 32.55 +11 42 57.0 20.7 V 703 – Catalina Sky Survey MPS 382067
2011 03 04.36113 11 37 32.08 +11 43 01.0 20.2 V 703 – Catalina Sky Survey MPS 382067
2011 03 04.37147 11 37 31.51 +11 43 05.0 20.1 V 703 – Catalina Sky Survey MPS 382067
2011 03 09.28437 11 32 49.88 +12 15 41.6 20.0 V G96 – Mt. Lemmon Survey MPS 373351
2011 03 09.29487 11 32 49.27 +12 15 45.7 19.6 V G96 – Mt. Lemmon Survey MPS 373351
2011 03 09.30532 11 32 48.62 +12 15 49.8 20.2 V G96 – Mt. Lemmon Survey MPS 373351
2011 03 09.31587 11 32 48.01 +12 15 53.7 19.7 V G96 – Mt. Lemmon Survey MPS 373351
2011 03 31.29555 11 13 00.939 +13 53 28.74 21.2 g F51 – Pan-STARRS 1, Haleakala MPS 378528
2011 03 31.30737 11 13 00.394 +13 53 30.28 20.5 i F51 – Pan-STARRS 1, Haleakala MPS 378528
2011 03 31.31861 11 12 59.873 +13 53 31.70 20.6 i F51 – Pan-STARRS 1, Haleakala MPS 378528
2013 11 24.61188 06 22 32.167 +23 21 28.34 20.7 i F51 – Pan-STARRS 1, Haleakala MPS 489733
2013 11 24.62585 06 22 31.614 +23 21 30.58 20.5 i F51 – Pan-STARRS 1, Haleakala MPS 489733
2014 01 07.23261 05 38 08.78 +25 23 17.4 20.0 V G96 – Mt. Lemmon Survey MPS 496417
2014 01 07.23783 05 38 08.50 +25 23 17.8 20.1 V G96 – Mt. Lemmon Survey MPS 496417
2014 01 07.24304 05 38 08.19 +25 23 18.4 20.2 V G96 – Mt. Lemmon Survey MPS 496417
2014 01 07.24826 05 38 07.85 +25 23 19.3 19.9 V G96 – Mt. Lemmon Survey MPS 496417
2015 06 24.19031 16 10 55.65 -20 25 34.7 21.3 V W84 – Cerro Tololo-DECam MPS 1278219
2015 06 24.22481 16 10 54.04 -20 25 35.1   W84 – Cerro Tololo-DECam MPS 1278219
2015 06 24.25929 16 10 52.43 -20 25 35.6   W84 – Cerro Tololo-DECam MPS 1278219
2015 07 12.36066 16 02 11.946 -20 40 44.02 21.4 w F51 – Pan-STARRS 1, Haleakala MPS 615793
2015 07 12.37242 16 02 11.794 -20 40 45.07 21.7 w F51 – Pan-STARRS 1, Haleakala MPS 615793
2015 07 12.38423 16 02 11.607 -20 40 45.85 21.8 w F51 – Pan-STARRS 1, Haleakala MPS 615793
2016 08 02.56496 01 34 38.320 +03 32 43.96 22.0 w F51 – Pan-STARRS 1, Haleakala MPS 723162
2016 08 02.57812 01 34 38.797 +03 32 45.34 22.2 w F51 – Pan-STARRS 1, Haleakala MPS 723162
2016 08 02.59135 01 34 39.285 +03 32 46.62 21.9 w F51 – Pan-STARRS 1, Haleakala MPS 723162
2016 09 26.51453 01 30 22.117 +01 30 50.37 20.7 w F51 – Pan-STARRS 1, Haleakala MPS 731978
2016 09 26.52638 01 30 21.513 +01 30 46.37 20.7 w F51 – Pan-STARRS 1, Haleakala MPS 731978
2016 09 26.53827 01 30 20.889 +01 30 42.85 20.7 w F51 – Pan-STARRS 1, Haleakala MPS 731978
2016 09 30.48177 01 26 58.063 +01 09 45.94 20.6 w F51 – Pan-STARRS 1, Haleakala MPS 731978
2016 09 30.49299 01 26 57.433 +01 09 42.23 20.5 w F51 – Pan-STARRS 1, Haleakala MPS 731978
2016 09 30.50426 01 26 56.808 +01 09 38.71 20.6 w F51 – Pan-STARRS 1, Haleakala MPS 731978
2016 09 30.51549 01 26 56.176 +01 09 35.22 20.6 w F51 – Pan-STARRS 1, Haleakala MPS 731978
2016 10 04.34354 01 23 24.63 +00 49 09.9 20.4 V 691 – Steward Observatory, Kitt Peak-Spacewatch MPS 733871
2016 10 04.36205 01 23 23.55 +00 49 03.4 20.8 V 691 – Steward Observatory, Kitt Peak-Spacewatch MPS 733871
2016 10 04.38057 01 23 22.43 +00 48 57.8 20.5 V 691 – Steward Observatory, Kitt Peak-Spacewatch MPS 733871
2016 10 08.29536 01 19 35.68 +00 28 31.6 20.1 V G96 – Mt. Lemmon Survey MPS 735834
2016 10 08.29807 01 19 35.50 +00 28 30.3 20.4 V G96 – Mt. Lemmon Survey MPS 735834
2016 10 08.29953 01 19 35.40 +00 28 29.4 20.1 V G96 – Mt. Lemmon Survey MPS 735834
2016 10 08.30094 01 19 35.36 +00 28 29.5 20.5 V G96 – Mt. Lemmon Survey MPS 735834
2016 10 20.35915 01 07 40.08 -00 26 45.6 20.8 V G96 – Mt. Lemmon Survey MPS 737246
2016 10 20.36821 01 07 39.53 -00 26 48.3 19.9 V G96 – Mt. Lemmon Survey MPS 737246
2016 10 20.37270 01 07 39.27 -00 26 48.9 20.2 V G96 – Mt. Lemmon Survey MPS 737246
2016 10 20.37721 01 07 38.98 -00 26 50.0 20.0 V G96 – Mt. Lemmon Survey MPS 737246
2016 10 27.27132 01 01 18.27 -00 49 41.3 20.0 V G96 – Mt. Lemmon Survey MPS 739206
2016 10 27.27562 01 01 18.07 -00 49 41.6 20.6 V G96 – Mt. Lemmon Survey MPS 739206
2016 10 27.28066 01 01 17.83 -00 49 43.0 20.4 V G96 – Mt. Lemmon Survey MPS 739206
2016 10 27.28656 01 01 17.52 -00 49 43.8 19.5 V G96 – Mt. Lemmon Survey MPS 739206
2016 10 27.39893 01 01 11.669 -00 50 01.07 20.6 w F51 – Pan-STARRS 1, Haleakala MPS 739206
2016 10 27.41330 01 01 10.890 -00 50 03.31 20.6 w F51 – Pan-STARRS 1, Haleakala MPS 739206
2016 10 27.42759 01 01 10.118 -00 50 05.69 20.6 w F51 – Pan-STARRS 1, Haleakala MPS 739206
2016 10 27.44192 01 01 09.328 -00 50 07.95 20.6 w F51 – Pan-STARRS 1, Haleakala MPS 739206
2017 12 28.62983 12 21 44.565 +03 20 55.58 21.6 w F51 – Pan-STARRS 1, Haleakala MPS 853698
2017 12 28.65524 12 21 46.282 +03 20 48.36 21.6 w F51 – Pan-STARRS 1, Haleakala MPS 853698
2018 01 14.60694 12 38 18.507 +02 22 08.86 21.5 w F51 – Pan-STARRS 1, Haleakala MPS 861091
